Location: ????????
(55.3939°N, 37.4780°E)
Time: 18:59:49
(UTC+00:00)

SL-08 R/B - Pass Details

Date: 14 April 2026
Orbit: 667 x 729 km, 98.5° (Epoch: 19 May)

Event Time Altitude Azimuth Distance (km) Brightness Sun altitude
Rises 17:48:24 0° 18° (NNE) 3,146 6.9 -10.4°
Reaches altitude 10° 17:50:44 10° 23° (NNE) 2,227 6.1 -10.6°
Maximum altitude 17:55:32 55° 101° (E) 880 3.5 -11.2°
Drops below altitude 10° 18:00:20 10° 179° (S) 2,224 5.5 -11.7°
Sets 18:02:39 0° 184° (S) 3,140 6.3 -12.0°
